FW2558 Weather Reports


time (UTC)temp
C
wind
direction
speed
KPH
gust
KPH
rain 1hr
cm
rain 24hr
cm
rain mn
cm
humidity
%
barometer
mb
20260504151025 24 113 12.9 30.6 0.00 6.35 0.00 68 1014.0
20260504150529 24 134 16.1 29.0 0.00 6.35 0.00 67 1014.1
20260504141108 23 110 14.5 25.7 0.00 6.35 0.00 67 1013.4
20260504140507 23 110 14.5 25.7 0.00 6.35 0.00 67 1013.5
20260504130548 21 99 14.5 27.4 0.00 6.35 0.00 77 1013.1
20260504110520 19 107 11.3 22.5 0.00 6.35 0.00 83 1012.0
20260504100517 19 132 11.3 22.5 0.00 6.35 0.00 85 1011.6
20260504082006 18 119 9.7 19.3 0.00 6.35 0.00 86 1011.8
20260504081504 18 126 4.8 25.7 0.00 6.35 0.00 86 1011.8
20260504081003 18 163 9.7 19.3 0.00 6.35 0.00 86 1011.8
20260504080503 18 124 8.0 22.5 0.00 6.35 0.00 86 1011.9
20260504050537 19 92 12.9 22.5 0.05 6.35 6.35 86 1014.3
20260504045539 19 115 12.9 24.1 0.08 6.35 6.35 87 1014.4
20260504045040 19 122 6.4 17.7 0.10 6.35 6.35 87 1014.5
20260504044536 19 96 9.7 19.3 0.10 6.35 6.35 87 1014.7
20260504044036 18 114 11.3 19.3 0.10 6.35 6.35 88 1014.6
20260504043536 18 138 9.7 16.1 0.13 6.35 6.35 89 1014.7
20260504043036 18 121 8.0 16.1 0.10 6.32 6.32 89 1014.8
20260504042536 18 100 8.0 16.1 0.13 6.32 6.32 89 1014.9
20260504042036 18 108 6.4 14.5 0.13 6.32 6.32 91 1014.9
20260504041535 18 111 1.6 6.4 0.13 6.32 6.32 92 1015.1
20260504041034 18 90 1.6 4.8 0.10 6.30 6.30 91 1015.1
20260504040535 18 86 1.6 4.8 0.13 6.30 6.30 91 1015.1
20260504040034 18 76 1.6 4.8 0.13 6.27 6.27 91 1015.2
20260504035536 18 65 1.6 4.8 0.13 6.27 6.27 91 1015.2
20260504035035 18 61 0.0 4.8 0.15 6.25 6.25 91 1015.2
20260504034535 18 86 0.0 4.8 0.15 6.25 6.25 91 1015.3
20260504034034 18 82 1.6 11.3 0.18 6.25 6.25 91 1015.4
20260504033534 18 57 1.6 11.3 0.15 6.22 6.22 91 1015.3
20260504033038 18 50 1.6 11.3 0.18 6.22 6.22 91 1015.2
20260504032533 18 56 4.8 12.9 0.15 6.20 6.20 90 1015.3
20260504032038 18 115 4.8 14.5 0.18 6.20 6.20 90 1015.2
20260504031533 18 71 8.0 14.5 0.18 6.20 6.20 90 1015.2
20260504031032 18 71 3.2 12.9 0.20 6.20 6.20 90 1015.2
20260504030534 18 84 6.4 12.9 0.18 6.17 6.17 90 1015.1
20260504030032 18 69 6.4 14.5 0.15 6.15 6.15 90 1015.1
20260504025533 18 96 8.0 14.5 0.15 6.15 6.15 90 1015.0
20260504025033 18 78 6.4 14.5 0.13 6.10 6.10 90 1015.0
20260504024532 18 110 8.0 12.9 0.13 6.10 6.10 89 1015.1
20260504024032 18 95 3.2 9.7 0.13 6.07 6.07 89 1015.0
20260504023531 18 80 3.2 12.9 0.13 6.07 6.07 89 1014.9
20260504023031 18 111 6.4 14.5 0.13 6.05 6.05 89 1014.7
20260504022531 18 119 9.7 14.5 0.13 6.05 6.05 89 1014.6
20260504022030 18 123 8.0 17.7 0.13 6.02 6.02 89 1014.5
20260504021531 18 123 8.0 17.7 0.13 6.02 6.02 90 1014.5
20260504021030 18 115 8.0 14.5 0.13 5.99 5.99 90 1014.4
20260504020531 18 110 3.2 11.3 0.15 5.99 5.99 90 1014.3
20260504020031 18 109 6.4 14.5 0.15 5.99 5.99 89 1014.3
20260504015530 19 119 3.2 16.1 0.18 5.99 5.99 89 1014.2
20260504015035 18 105 8.0 14.5 0.18 5.97 5.97 89 1014.1
20260504014541 18 77 6.4 14.5 0.15 5.94 5.94 90 1014.1
20260504014032 18 120 8.0 14.5 0.18 5.94 5.94 91 1013.9
20260504013630 18 106 9.7 14.5 0.18 5.94 5.94 91 1014.0
20260504013032 18 132 6.4 12.9 0.18 5.92 5.92 91 1013.9
20260504012532 18 148 8.0 12.9 0.18 5.92 5.92 91 1014.0
20260504012029 18 94 4.8 12.9 0.15 5.87 5.87 91 1014.0
20260504011529 18 175 3.2 12.9 0.18 5.87 5.87 91 1014.0
20260504011027 19 126 4.8 11.3 0.18 5.87 5.87 91 1013.9
20260504010527 19 123 8.0 14.5 0.15 5.82 5.82 90 1013.9
20260504010027 19 115 9.7 14.5 0.15 5.82 5.82 91 1013.9
20260504005528 19 104 8.0 12.9 0.15 5.82 5.82 92 1013.9
20260504005031 19 138 1.6 6.4 0.13 5.77 5.77 93 1013.9
20260504004527 19 120 0.0 0.0 0.13 5.77 5.77 93 1013.8
20260504004028 19 120 0.0 0.0 0.10 5.77 5.77 93 1013.7
20260504003526 19 90 0.0 0.0 0.10 5.71 5.71 93 1013.6
20260504003026 19 92 0.0 0.0 0.10 5.71 5.71 93 1013.6
20260504002526 18 99 0.0 0.0 0.13 5.71 5.71 93 1013.5
20260504002026 18 94 0.0 0.0 0.15 5.71 5.71 93 1013.6
20260504001526 18 113 0.0 0.0 0.15 5.71 5.71 93 1013.6
20260504001026 18 79 0.0 0.0 0.15 5.69 5.69 93 1013.6
20260504000524 18 338 0.0 3.2 0.18 5.69 5.69 93 1013.6
20260504000038 18 303 0.0 4.8 0.18 5.71 5.69 93 1013.5
20260503235524 18 302 1.6 4.8 0.25 5.69 5.66 93 1013.5
20260503235025 18 252 0.0 3.2 0.28 5.69 5.66 93 1013.4
20260503234524 18 292 0.0 4.8 0.28 5.69 5.66 93 1013.3
20260503234024 18 313 1.6 4.8 0.28 5.69 5.66 93 1013.2
20260503233523 18 266 1.6 3.2 0.25 5.66 5.64 93 1013.1
20260503233025 18 228 0.0 3.2 0.25 5.66 5.64 93 1013.1
20260503232523 18 227 1.6 3.2 0.23 5.64 5.61 93 1013.0
20260503232023 19 223 0.0 4.8 0.20 5.61 5.59 93 1012.9
20260503231523 19 240 1.6 4.8 0.15 5.56 5.56 93 1013.0
20260503231023 19 227 1.6 4.8 0.15 5.56 5.54 93 1013.0
20260503230524 19 252 0.0 6.4 0.13 5.54 5.51 93 1012.9
20260503230024 19 298 3.2 6.4 0.13 5.56 5.51 93 1012.9
20260503225525 18 261 0.0 4.8 0.03 5.46 5.41 92 1012.9
20260503225022 19 215 0.0 6.4 0.03 5.44 5.38 92 1012.7
20260503224526 19 205 1.6 6.4 0.03 5.44 5.38 93 1012.7
20260503224026 19 219 1.6 4.8 0.10 5.44 5.38 93 1012.5
20260503223522 19 202 0.0 4.8 0.28 5.44 5.38 92 1012.6
20260503223021 19 211 0.0 6.4 0.43 5.44 5.38 93 1012.5
20260503222521 19 217 3.2 6.4 0.69 5.44 5.38 93 1012.3
20260503222021 18 182 1.6 4.8 0.76 5.44 5.38 93 1012.2
20260503221521 18 36 0.0 1.6 1.27 5.44 5.38 93 1012.1
20260503221021 18 36 0.0 3.2 2.06 5.44 5.38 93 1012.1
20260503220521 18 40 0.0 3.2 2.87 5.44 5.38 93 1012.1
20260503220024 18 355 0.0 3.2 3.71 5.46 5.38 93 1012.3
20260503215521 18 355 0.0 4.8 4.22 5.46 5.38 92 1012.4
20260503215020 18 101 1.6 6.4 4.62 5.44 5.36 92 1012.6
20260503214529 18 19 1.6 6.4 4.72 5.44 5.36 92 1012.5
20260503214019 18 23 1.6 8.0 4.62 5.31 5.23 91 1012.4
20260503213519 18 51 1.6 12.9 4.47 5.13 5.08 91 1012.3
20260503213021 18 80 4.8 12.9 4.32 5.00 4.93 91 1012.4
20260503212521 18 9 4.8 12.9 4.11 4.75 4.67 92 1012.3
20260503212018 18 333 3.2 24.1 4.11 4.65 4.57 92 1012.4
20260503211517 18 276 12.9 24.1 3.61 4.09 4.01 91 1012.5
20260503211017 18 307 9.7 17.7 2.92 3.30 3.23 89 1012.4
20260503210517 20 332 4.8 11.3 2.36 2.46 2.39 88 1012.4
20260503210037 20 290 1.6 9.7 1.57 1.65 1.57 87 1012.2
20260503205519 20 302 3.2 9.7 1.12 1.19 1.12 88 1012.3
20260503205016 21 5 0.0 9.7 0.69 0.76 0.69 88 1012.3
20260503204615 21 51 1.6 9.7 0.64 0.71 0.64 89 1012.1
20260503204018 21 53 0.0 6.4 0.61 0.69 0.61 89 1012.1
20260503203514 21 41 0.0 6.4 0.61 0.69 0.61 88 1012.2
20260503203015 21 24 0.0 6.4 0.58 0.66 0.58 88 1012.0
20260503202513 21 360 3.2 6.4 0.56 0.64 0.56 87 1012.1
20260503202013 21 337 0.0 11.3 0.43 0.51 0.43 86 1012.0
20260503201513 22 310 4.8 11.3 0.41 0.48 0.41 84 1011.9
20260503201012 22 340 4.8 11.3 0.20 0.28 0.20 80 1011.9
20260503200512 23 333 1.6 17.7 0.00 0.08 0.00 77 1011.9
20260503200015 23 264 3.2 17.7 0.00 0.08 0.00 74 1012.0
20260503195511 23 280 4.8 22.5 0.00 0.08 0.00 74 1012.0
20260503195011 23 323 8.0 22.5 0.00 0.08 0.00 71 1012.0
20260503194512 25 313 11.3 22.5 0.00 0.08 0.00 70 1012.1
20260503194012 25 323 9.7 24.1 0.00 0.08 0.00 68 1012.1
20260503193510 25 279 9.7 24.1 0.00 0.08 0.00 66 1012.1
20260503193109 26 243 8.0 19.3 0.00 0.08 0.00 63 1012.2
20260503192508 26 288 4.8 22.5 0.00 0.08 0.00 61 1012.1
20260503192008 26 236 9.7 22.5 0.00 0.08 0.00 59 1012.1
20260503191508 27 213 4.8 14.5 0.00 0.08 0.00 55 1012.1
20260503191108 27 313 3.2 14.5 0.00 0.08 0.00 56 1012.2
20260503190507 27 298 1.6 12.9 0.00 0.08 0.00 54 1012.3
20260503190006 27 306 1.6 9.7 0.00 0.08 0.00 54 1012.4
20260503185506 27 302 3.2 12.9 0.00 0.08 0.00 54 1012.5
20260503185009 27 232 3.2 9.7 0.00 0.08 0.00 54 1012.5
20260503184505 27 263 1.6 9.7 0.00 0.08 0.00 55 1012.5
20260503184006 27 180 0.0 14.5 0.00 0.08 0.00 55 1012.7
20260503183504 27 215 6.4 14.5 0.00 0.08 0.00 53 1012.8
20260503183003 28 304 3.2 19.3 0.00 0.08 0.00 54 1012.7
20260503182501 27 97 1.6 16.1 0.00 0.08 0.00 55 1012.9
20260503182100 27 252 4.8 16.1 0.00 0.08 0.00 55 1012.9
20260503181559 27 235 4.8 16.1 0.00 0.08 0.00 56 1013.1
20260503181501 27 289 3.2 11.3 0.00 0.08 0.00 55 1013.1
20260503181059 27 219 1.6 8.0 0.00 0.08 0.00 57 1013.4
20260503180558 27 319 3.2 11.3 0.00 0.08 0.00 56 1013.5
20260503180107 27 58 4.8 11.3 0.00 0.08 0.00 55 1013.7
20260503175557 27 103 0.0 9.7 0.00 0.08 0.00 54 1013.9
20260503175056 27 36 3.2 14.5 0.00 0.08 0.00 53 1014.0
20260503174556 27 5 4.8 14.5 0.00 0.08 0.00 53 1014.2
20260503174055 27 155 3.2 9.7 0.00 0.08 0.00 55 1014.2
20260503173553 27 143 3.2 9.7 0.00 0.08 0.00 56 1014.2
20260503173142 27 212 4.8 9.7 0.00 0.08 0.00 56 1014.4
20260503172550 27 141 4.8 11.3 0.00 0.08 0.00 56 1014.5
20260503172050 26 216 6.4 14.5 0.00 0.08 0.00 57 1014.5
20260503171550 26 154 4.8 16.1 0.00 0.08 0.00 59 1014.5
20260503171048 26 70 8.0 16.1 0.00 0.08 0.00 60 1014.6
20260503170548 25 141 4.8 16.1 0.00 0.08 0.00 59 1014.7